TimeEDT,TemperatureF,Dew PointF,Humidity,Sea Level PressureIn,VisibilityMPH,Wind Direction,Wind SpeedMPH,Gust SpeedMPH,PrecipitationIn,Events,Conditions,WindDirDegrees,DateUTC
12:58 AM,73.0,63.7,72,30.01,10.0,SSW,5.8,-,N/A,,Clear,210,2014-06-08 04:58:00
1:58 AM,72.0,64.2,77,29.99,10.0,Variable,2.3,-,N/A,,Mostly Cloudy,0,2014-06-08 05:58:00
2:58 AM,69.6,63.9,82,29.97,10.0,Calm,Calm,-,N/A,,Clear,0,2014-06-08 06:58:00
3:58 AM,69.3,63.9,83,29.97,10.0,South,2.3,-,N/A,,Clear,180,2014-06-08 07:58:00
4:58 AM,66.9,63.9,90,29.98,10.0,Calm,Calm,-,N/A,,Clear,0,2014-06-08 08:58:00
5:58 AM,64.8,63.3,95,29.99,10.0,Calm,Calm,-,N/A,,Clear,0,2014-06-08 09:58:00
6:58 AM,64.4,63.3,96,29.99,10.0,NE,1.2,-,N/A,,Clear,40,2014-06-08 10:58:00
7:58 AM,68.9,64.0,84,30.01,10.0,SE,4.6,-,N/A,,Clear,140,2014-06-08 11:58:00
8:58 AM,75.0,65.1,71,30.01,10.0,SSE,5.8,-,N/A,,Clear,160,2014-06-08 12:58:00
9:58 AM,78.6,63.5,60,29.99,10.0,South,8.1,-,N/A,,Clear,190,2014-06-08 13:58:00
10:58 AM,80.4,63.7,57,29.99,10.0,Variable,6.9,-,N/A,,Clear,0,2014-06-08 14:58:00
11:58 AM,83.5,62.6,49,29.99,10.0,ESE,9.2,-,N/A,,Clear,120,2014-06-08 15:58:00
12:58 PM,85.5,62.1,45,29.95,10.0,SSE,12.7,-,N/A,,Clear,160,2014-06-08 16:58:00
1:58 PM,87.4,62.2,43,29.94,10.0,SSE,9.2,-,N/A,,Clear,160,2014-06-08 17:58:00
2:58 PM,84.6,62.6,48,29.94,10.0,South,8.1,-,N/A,,Partly Cloudy,170,2014-06-08 18:58:00
3:58 PM,83.5,63.9,51,29.93,10.0,South,12.7,-,N/A,,Clear,170,2014-06-08 19:58:00
4:36 PM,82.4,62.6,51,29.93,10.0,South,10.4,17.3,N/A,Rain,Light Rain,180,2014-06-08 20:36:00
4:58 PM,81.3,62.8,53,29.93,10.0,South,9.2,-,0.00,Rain,Light Rain,180,2014-06-08 20:58:00
5:00 PM,82.4,62.6,51,29.92,10.0,South,11.5,-,N/A,,Clear,180,2014-06-08 21:00:00
5:58 PM,81.1,61.3,51,29.91,10.0,South,12.7,17.3,0.00,,Clear,170,2014-06-08 21:58:00
6:58 PM,80.1,61.3,53,29.90,10.0,South,9.2,17.3,N/A,,Clear,170,2014-06-08 22:58:00
7:58 PM,78.3,61.2,56,29.90,10.0,South,11.5,-,N/A,,Partly Cloudy,170,2014-06-08 23:58:00
8:58 PM,76.8,61.3,59,29.91,10.0,South,8.1,-,N/A,,Scattered Clouds,170,2014-06-09 00:58:00
9:58 PM,75.2,62.4,64,29.93,10.0,SE,5.8,-,N/A,,Partly Cloudy,140,2014-06-09 01:58:00
10:58 PM,74.7,63.3,68,29.94,10.0,SSE,9.2,-,N/A,,Mostly Cloudy,160,2014-06-09 02:58:00
11:58 PM,74.5,63.9,69,29.94,10.0,SSE,8.1,-,N/A,,Overcast,160,2014-06-09 03:58:00